Location: Lourdes
(43.1000°N, 0.0500°W)
Time: 05:28:55
(UTC+00:00)

Cosmos 1238 Rocket - Pass Details

Date: 30 November 2020
Orbit: 375 x 1024 km, 83.0° (Epoch: 24 January)

Event Time Altitude Azimuth Distance (km) Brightness Sun altitude
Rises 18:14:39 0° 359° (N) 2,634 6.2 -19.2°
Enters shadow 18:15:16 - 0° (N) 2,389 6.0 -19.3°
Exits shadow 18:22:03 35° 130° (SE) 1,063 3.9 -20.5°
Drops below altitude 10° 18:25:17 10° 155° (SSE) 2,203 5.7 -21.1°
Sets 18:27:55 0° 161° (SSE) 3,238 6.7 -21.6°
